COSMOS 2525 (43243 NORAD) Tracking and Keplerian Element Data

This shows tracking and keplerian element data for the satellite.

Feedback or suggestion? Click here.




ElementValue
Catalog43243
NameCOSMOS 2525
Epoch Orbit461
Epoch Day117.84021978
Epoch Year2018
RAAN173.4717
Inclination96.6358
Eccentricity0.0002102
Argument of Perigee129.0661
Mean Anonmoly320.0035
Mean Motion15.8637354
Decay Rate0.00029435
L11 43243U 18028A 18117.84021978 .00029435 00000-0 11851-3 0 9994
L22 43243 96.6358 173.4717 0002102 129.0661 320.0035 15.86373540 4611

Live tracking and technical data element details for COSMOS 2525 (NORAD 43243). COSMOS 2525 can be tracked NOW for your location showing map with azimuth and elevation plus other details from your city location.

Track the satellite on the map from your city or location and see movement details for azimuth, elevation, latitude, longitude, range, height, and movement on the map or in text.







IsCatalogInMostPopularTable: catalog: 43243, numindb: 54
Update: records affected: 1



GetName: 43243 COSMOS 2525

Hit Count: updated at: Tue, 20 Nov 2018 12:06:15 GMT